sat.trackr.live / text

‹ back to catalog

STARLINK-36124

NORAD 67121 · 2025-299V

PAYLOAD ACTIVE UNKNOWN

§ Identity

Operator
Country
US
Launch date
2025-12-15
Launch site
AFETR
Launch vehicle
Mass (kg)
RCS (m²)

Purposes: comms

External: N2YO · Heavens-Above · Gunter

§ Orbital elements

Epoch: 2026-09-19T10:07:58.039392Z

Period
94.27 min
Inclination
43.0033°
Eccentricity
0.0001929
Mean motion
15.27586878 rev/d
Perigee alt
481.7 km
Apogee alt
484.4 km
Semi-major
6,861.2 km
B*
3.6250e-4
RAAN
155.0160°
Arg perigee
268.7161°
Mean anomaly
91.3469°
Rev number
4,274

§ Raw data

STARLINK-361241 67121U 25299V   26262.42219953  .00009728  00000+0  36250-3 0  99912 67121  43.0033 155.0160 0001929 268.7161  91.3469 15.27586878 42748

JSON: /api/v1/satellites/67121 · /tle

For live sub-satellite position, see the globe view (requires WebGL).

§ Visibility from observer

Set your observer location to see the next 7 days of passes ≥ 10°. The values pass through the URL so the page stays shareable.

No JS? Fill the form by hand. The geolocation button needs JavaScript.